Flag for Norway Weather past 2 weeks in Asker, Norway

Now
54 °F

Partly sunny.


Feels Like: 47 °F
Forecast: 53 / 76 °F
Wind: 29 mph from South

Location: Oslo / Fornebu

Current Time: Jun 30, 2015 at 11:34:57 PM

Latest Report: Jun 30, 2015 at 10:50 PM


Visibility: N/A

Pressure: 30.04 "Hg

Humidity: 94%

Dew point: 52 °F

Location of AskerLocation

Historic Weather in Asker — Graph

°F

Asker temperature yesterday

Maximum temperature yesterday: 54 °F (at 10:50 AM)
Minimum temperature yesterday: 50 °F (at 5:50 AM)
Average temperature yesterday: 52 °F

Past Weeks' High & Low Weather Summary

 TemperatureHumidityPressure
High55 °F (Jun 18, 3:50 PM)100% (Jun 17, 3:50 AM)30.24 "Hg (Jun 17, 3:50 AM)
Low45 °F (Jun 16, 1:50 AM)54% (Jun 16, 4:20 PM)29.65 "Hg (Jun 17, 2:50 PM)
Average50 °F87%29.94 "Hg
* Reported Jun 15 10:20 PM — Jun 30 10:20 PM, Asker, Weather by CustomWeather, © 2015

Note: Actual official high and low records may vary slightly from our data, if they occured in-between our weather recording intervals... More about our weather records

Advertising

Asker weather history for previous 24 hours

 ConditionsComfort  
Time TempWeatherWind HumidityBarometerVisibility
10:20 PM
Tue, Jun 30
54 °FPartly sunny.29 mph94%30.04 "HgN/A
9:50 PM54 °FMostly cloudy.32 mph94%30.04 "HgN/A
9:20 PM55 °FOvercast.33 mph88%30.04 "HgN/A
8:50 PM54 °FMostly cloudy.32 mph94%30.04 "HgN/A
8:20 PM54 °FOvercast.32 mph94%30.04 "HgN/A
7:50 PM55 °FSprinkles. Partly sunny.33 mph94%30.04 "Hg4 mi
6:50 PM55 °FLight rain. Fog.35 mph94%30.04 "Hg2 mi
6:20 PM55 °FDrizzle. Overcast.35 mph88%30.04 "Hg4 mi
5:50 PM55 °FOvercast.35 mph88%30.04 "HgN/A
4:50 PM55 °FLight rain. Mostly cloudy.31 mph88%30.07 "HgN/A
4:20 PM54 °FLight rain. Overcast.30 mph94%30.09 "HgN/A
3:50 PM54 °FSprinkles. Overcast.30 mph94%30.09 "HgN/A
2:50 PM54 °FDrizzle. Partly sunny.29 mph94%30.09 "HgN/A
2:20 PM54 °FPartly sunny.26 mph94%30.09 "HgN/A
1:50 PM54 °FBroken clouds.26 mph88%30.09 "HgN/A
1:20 PM54 °FPartly sunny.25 mph94%30.09 "HgN/A
12:50 PM55 °FCool.23 mph88%30.09 "HgN/A
12:20 PM55 °FPartly sunny.23 mph88%30.09 "HgN/A
11:50 AM54 °FPartly sunny.24 mph94%30.09 "HgN/A
11:20 AM54 °FPartly sunny.25 mph94%30.09 "HgN/A
10:50 AM54 °FPartly sunny.24 mph94%30.09 "HgN/A
10:20 AM55 °FPassing clouds.24 mph88%30.09 "HgN/A
9:50 AM55 °FBroken clouds.25 mph82%30.09 "HgN/A
9:20 AM55 °FScattered clouds.25 mph82%30.09 "HgN/A
8:50 AM55 °FScattered clouds.22 mph82%30.09 "HgN/A
8:20 AM54 °FPartly sunny.20 mph88%30.09 "HgN/A
7:50 AM54 °FPartly sunny.14 mph88%30.09 "HgN/A
7:20 AM52 °FPartly sunny.14 mph94%30.09 "HgN/A
6:50 AM52 °FPartly sunny.8 mph94%30.09 "HgN/A
6:20 AM52 °FCool.10 mph94%30.09 "HgN/A
5:50 AM52 °FCool.14 mph94%30.09 "HgN/A
5:20 AM52 °FPartly sunny.16 mph100%30.07 "HgN/A
4:50 AM52 °FPassing clouds.15 mph100%30.07 "HgN/A
4:20 AM52 °FPartly cloudy.17 mph100%30.09 "HgN/A
3:50 AM52 °FPassing clouds.17 mph100%30.07 "HgN/A
3:20 AM52 °FPartly cloudy.17 mph100%30.07 "HgN/A
2:50 AM52 °FPassing clouds.17 mph100%30.07 "HgN/A
2:20 AM52 °FPassing clouds.16 mph100%30.09 "HgN/A
1:50 AM52 °FOvercast.22 mph100%30.09 "HgN/A
1:20 AM52 °FPassing clouds.20 mph100%30.07 "HgN/A
12:50 AM52 °FPassing clouds.18 mph100%30.07 "HgN/A
12:20 AM52 °FPassing clouds.20 mph100%30.07 "HgN/A
11:50 PM
Mon, Jun 29
52 °FPassing clouds.17 mph100%30.07 "HgN/A
11:20 PM52 °FPartly sunny.14 mph100%30.07 "HgN/A
Weather by CustomWeather, © 2015

See weather overviewHow to use our weather pages